Stations météo

réclame
Mon MeteoGroup
Rouen, France (7037): Température de l'air & dewpoint: 14.11.2017 12:00:00 - 20.11.2017 12:00:00 (CET)Rouen, France (7037): Température de l'air 5cm: 14.11.2017 12:00:00 - 20.11.2017 12:00:00 (CET)Rouen, France (7037): Température de l'air -20cm & Température de l'air -100cm: 14.11.2017 12:00:00 - 20.11.2017 12:00:00 (CET)Rouen, France (7037): Vitesse du vent & gusts: 14.11.2017 12:00:00 - 20.11.2017 12:00:00 (CET)Rouen, France (7037): Direction du vent: 14.11.2017 12:00:00 - 20.11.2017 12:00:00 (CET)Rouen, France (7037): reduced air pressure: 14.11.2017 12:00:00 - 20.11.2017 12:00:00 (CET)Rouen, France (7037): visibility: 14.11.2017 12:00:00 - 20.11.2017 12:00:00 (CET)Rouen, France (7037): Ensoleillement: 14.11.2017 12:00:00 - 20.11.2017 12:00:00 (CET)Rouen, France (7037): Quantités de précipitations: 14.11.2017 12:00:00 - 20.11.2017 12:00:00 (CET)
Date & Time tt [°C] td [°C] tt 5cm [°C] tt -20cm [°C] tt -100cm [°C] ff [km/h] ff [knt] fx [km/h] fx [knt] dd ppp [hPa] vv [km] sd [min] rr [mm]
20.11.2017 12:00:00 9,9 7,7 10,2 8,9 11,8 21 11 35 19 SW 1021,3 10 1 0,0
20.11.2017 11:00:00 9,4 8,3 9,9 8,9 11,7 22 12 29 15 SW 1021,6 10 15 0,0
20.11.2017 10:00:00 7,4 7,0 5,9 8,9 11,7 16 9 24 13 SSW 1022,0 10 3 0,0
20.11.2017 09:00:00 5,7 5,4 5,0 8,9 11,8 8 4 12 7 S 1022,5 7 0 0,0
20.11.2017 08:00:00 5,0 4,7 4,4 9,0 11,8 8 4 13 7 S 1022,2 6 0 0,0
20.11.2017 07:00:00 4,4 4,0 4,2 9,0 11,8 11 6 18 10 S 1022,7 7 0 0,0
20.11.2017 06:00:00 4,4 4,0 3,7 9,0 11,8 9 5 15 8 S 1022,9 8 0 0,0
20.11.2017 05:00:00 3,9 3,6 3,4 9,1 11,8 9 5 16 9 SSE 1022,9 7 0 0,0
20.11.2017 04:00:00 3,6 3,5 0,1 9,2 11,8 8 4 11 6 S 1023,9 8 0 0,0
20.11.2017 03:00:00 2,5 2,1 0,6 9,2 11,8 9 5 12 6 S 1024,3 6 0 0,0
20.11.2017 02:00:00 2,8 2,5 0,3 9,2 11,8 9 5 10 6 S 1024,7 7 0 0,0
20.11.2017 01:00:00 2,9 2,5 0,9 9,3 11,8 4 2 6 3 SSE 1025,3 8 0 0,0
20.11.2017 00:00:00 2,9 2,6 -1,0 9,4 11,8 4 2 7 4 S 1025,7 9 0 0,0
19.11.2017 23:00:00 2,7 2,0 -0,6 9,5 11,8 5 3 8 5 S 1025,9 10 0 0,0
19.11.2017 22:00:00 3,6 3,0 -1,2 9,5 11,8 5 3 10 5 SSW 1025,6 10 0 0,0
19.11.2017 21:00:00 2,8 2,4 -1,9 9,5 11,8 5 3 7 4 SW 1025,7 10 0 0,0
19.11.2017 20:00:00 2,7 1,7 -1,6 9,6 11,8 5 3 9 5 WSW 1025,7 10 0 0,0
19.11.2017 19:00:00 3,6 2,3 -1,7 9,6 11,8 4 2 10 5 W 1025,6 28 0 0,0
19.11.2017 18:00:00 3,8 2,2 -1,4 9,6 11,8 4 2 14 8 WNW 1025,0 10 0 0,0
19.11.2017 17:00:00 6,0 2,3 4,1 9,6 11,8 13 7 18 10 NW 1024,7 46 0 0,0
19.11.2017 16:00:00 7,4 2,7 7,2 9,5 11,8 10 5 25 14 WNW 1024,4 58 0 0,0
19.11.2017 15:00:00 8,0 2,4 8,7 9,5 11,8 13 7 24 13 WNW 1024,4 59 13 0,0
19.11.2017 14:00:00 8,4 2,6 9,8 9,5 11,8 11 6 21 11 NW 1024,4 10 2 0,0
19.11.2017 13:00:00 8,1 3,0 9,1 9,5 11,8 13 7 23 12 NNW 1024,5 10 1 0,0
19.11.2017 12:00:00 7,9 3,0 9,1 9,5 11,8 11 6 21 11 NNW 1024,7 10 26 0,0
19.11.2017 11:00:00 7,3 2,6 8,9 9,5 11,8 13 7 21 11 N 1024,4 39 60 0,0
19.11.2017 10:00:00 6,3 4,9 3,4 9,5 11,8 8 4 14 7 NNW 1023,9 10 6 0,0
19.11.2017 09:00:00 4,6 3,6 -0,1 9,6 11,9 5 3 10 5 NW 1023,7 10 6 0,0
19.11.2017 08:00:00 4,2 3,6 -0,7 9,6 11,9 5 3 10 5 NW 1023,0 10 0 0,0
19.11.2017 07:00:00 5,2 4,2 1,9 9,6 11,8 5 3 10 5 NW 1022,4 10 0 0,0
19.11.2017 06:00:00 7,2 5,5 6,1 9,6 11,9 8 4 20 11 NNW 1021,9 58 0 0,0
19.11.2017 05:00:00 7,8 6,1 7,4 9,6 11,9 13 7 22 12 NNW 1021,7 10 0 0,0
19.11.2017 04:00:00 8,2 7,3 7,7 9,6 11,9 9 5 25 13 NW 1021,3 10 0 0,0
19.11.2017 03:00:00 8,8 8,3 8,6 9,5 11,9 15 8 30 16 NNW 1021,0 3,6 0 0,6
19.11.2017 02:00:00 9,1 8,8 8,6 9,5 11,9 13 7 34 18 WNW 1020,7 2,0 0 2,6
19.11.2017 01:00:00 8,9 8,1 8,2 9,5 11,9 20 11 32 18 W 1020,8 3,2 0 1,0
19.11.2017 00:00:00 9,0 7,3 8,7 9,5 11,9 21 11 35 19 W 1021,1 10 0 0,0
18.11.2017 23:00:00 9,0 7,1 8,3 9,6 11,9 21 11 38 21 W 1021,6 10 0 0,0
18.11.2017 22:00:00 8,6 6,6 7,9 9,5 11,9 18 10 32 17 W 1022,2 27 0 0,0
18.11.2017 21:00:00 8,2 6,0 6,9 9,6 11,9 18 10 28 15 W 1022,5 30 0 0,0
18.11.2017 20:00:00 7,9 5,5 6,9 9,5 11,9 22 12 33 18 W 1023,0 10 0 0,0
18.11.2017 19:00:00 8,1 5,2 7,5 9,5 11,9 22 12 32 17 W 1023,3 40 0 0,0
18.11.2017 18:00:00 8,1 5,6 7,8 9,5 11,9 20 11 31 17 WSW 1023,5 33 0 0,0
18.11.2017 17:00:00 8,0 5,5 7,8 9,4 11,9 19 10 31 17 WSW 1023,6 37 0 0,0
18.11.2017 16:00:00 8,3 5,4 8,4 9,4 11,9 21 11 30 16 W 1024,1 10 0 0,0
18.11.2017 15:00:00 8,1 6,4 9,3 9,4 11,9 16 9 28 15 WSW 1024,6 20 7 0,0
18.11.2017 14:00:00 8,1 7,7 7,9 9,4 11,9 15 8 19 10 SW 1025,2 10 16 0,0
18.11.2017 13:00:00 6,1 6,0 6,4 9,4 11,9 9 5 14 7 SW 1026,2 10 0 0,0
18.11.2017 12:00:00 5,5 5,4 5,8 9,4 11,9 9 5 11 6 SSW 1026,7 7 0 0,0
18.11.2017 11:00:00 5,0 4,9 5,4 9,4 11,9 8 4 11 6 SSW 1026,8 3,0 0 0,0
18.11.2017 10:00:00 5,0 4,9 5,0 9,5 11,9 9 5 13 7 SW 1026,7 2,9 0 0,0
18.11.2017 09:00:00 4,6 4,5 4,3 9,5 11,9 5 3 11 6 W 1026,9 0,2 0 0,0
18.11.2017 08:00:00 4,4 4,3 4,3 9,5 11,9 5 3 12 6 W 1026,6 0,3 0 0,0
18.11.2017 07:00:00 4,3 4,2 4,0 9,6 11,9 8 4 12 6 WSW 1026,1 0,3 0 0,0
18.11.2017 06:00:00 3,8 3,7 3,4 9,7 11,9 6 3 8 4 SSW 1026,3 0,1 0 0,0
18.11.2017 05:00:00 3,4 3,3 -1,1 9,7 11,9 5 3 14 7 - 1026,5 0,2 0 0,0
18.11.2017 04:00:00 2,3 1,9 -1,2 9,8 11,9 7 4 9 5 S 1027,0 0,3 0 0,0
18.11.2017 03:00:00 2,8 2,7 -2,8 9,9 11,9 0 0 2 1 N 1027,5 2,1 0 0,0
18.11.2017 02:00:00 2,2 1,8 -2,5 10,0 11,9 0 0 7 4 N 1027,6 6 0 0,0
18.11.2017 01:00:00 3,1 2,7 -1,5 10,0 11,9 5 3 5 3 SSE 1027,6 3,3 0 0,0
18.11.2017 00:00:00 2,9 2,3 -2,2 10,1 12,0 4 2 7 4 NE 1028,2 4,8 0 0,0
17.11.2017 23:00:00 3,7 3,1 -2,0 10,1 11,9 5 3 7 4 NE 1028,3 9 0 0,0
17.11.2017 22:00:00 4,5 3,6 -1,3 10,2 11,9 4 2 7 4 ESE 1028,0 8 0 0,0
17.11.2017 21:00:00 5,7 4,5 1,1 10,2 11,9 5 3 7 4 ENE 1028,3 10 0 0,0
17.11.2017 20:00:00 7,7 5,7 6,6 10,2 11,9 5 3 8 4 ENE 1028,2 19 0 0,0
17.11.2017 19:00:00 8,6 6,7 6,7 10,2 11,9 5 3 9 5 NE 1028,1 10 0 0,0
17.11.2017 18:00:00 7,5 6,3 2,9 10,2 12,0 0 0 4 2 N 1027,7 10 0 0,0
17.11.2017 17:00:00 7,8 5,6 3,2 10,1 11,9 2 1 6 4 SE 1027,4 18 0 0,0
17.11.2017 16:00:00 9,7 6,2 9,2 10,0 11,9 4 2 12 6 - 1027,6 10 0 0,0
17.11.2017 15:00:00 10,0 6,9 10,7 10,0 11,9 9 5 16 8 E 1027,9 10 0 0,0
17.11.2017 14:00:00 10,4 6,5 12,2 9,9 11,9 5 3 11 6 N 1028,2 10 4 0,0
17.11.2017 13:00:00 10,9 7,4 12,4 9,9 12,0 5 3 12 6 NE 1028,0 16 29 0,0
17.11.2017 12:00:00 9,7 8,1 9,4 9,9 12,0 9 5 18 10 E 1028,5 10 0 0,0
17.11.2017 11:00:00 8,7 7,8 8,9 9,9 12,0 11 6 20 11 ENE 1028,6 7 0 0,0
17.11.2017 10:00:00 8,8 8,2 8,6 9,9 12,0 11 6 18 10 ENE 1028,2 4,6 0 0,0
17.11.2017 09:00:00 8,5 8,1 8,2 9,9 12,0 9 5 15 8 NE 1028,3 4,5 0 0,0
17.11.2017 08:00:00 8,2 7,9 8,0 9,9 12,0 5 3 17 9 ENE 1027,8 4,3 0 0,0
17.11.2017 07:00:00 8,1 7,7 7,9 9,9 12,0 9 5 12 7 NNE 1027,4 3,2 0 0,0
17.11.2017 06:00:00 8,0 7,6 7,3 9,9 12,0 6 3 9 5 NW 1027,2 4,4 0 0,0
17.11.2017 05:00:00 7,6 7,5 5,8 10,0 12,0 3 1 6 3 NNW 1027,0 5 0 0,0
17.11.2017 04:00:00 6,8 6,5 5,0 10,0 12,0 2 1 9 5 WSW 1027,0 3,8 0 0,0
17.11.2017 03:00:00 6,3 5,9 2,0 10,0 12,0 4 2 6 3 WSW 1027,0 3,8 0 0,0
17.11.2017 02:00:00 7,3 6,9 5,8 10,0 12,0 4 2 5 3 SW 1026,6 3,5 0 0,0
17.11.2017 01:00:00 7,3 7,0 6,6 10,1 12,0 4 2 6 3 SW 1026,5 7 0 0,0
17.11.2017 00:00:00 6,7 6,4 2,4 10,1 12,0 4 2 5 3 SW 1026,7 6 0 0,0
16.11.2017 23:00:00 6,7 6,0 4,7 10,1 12,0 0 0 5 3 N 1026,7 7 0 0,0
16.11.2017 22:00:00 7,2 6,5 5,9 10,1 12,0 4 2 9 5 S 1026,4 8 0 0,0
16.11.2017 21:00:00 7,4 6,7 6,2 10,1 12,0 5 3 7 4 SSW 1026,3 8 0 0,0
16.11.2017 20:00:00 7,5 6,8 6,0 10,1 12,0 4 2 6 3 SSW 1026,0 8 0 0,0
16.11.2017 19:00:00 7,5 6,4 5,7 10,0 12,0 3 2 5 3 W 1025,8 11 0 0,0
16.11.2017 18:00:00 7,9 6,4 6,0 10,0 12,0 2 1 5 3 SSW 1025,2 10 0 0,0
16.11.2017 17:00:00 8,9 6,9 8,6 9,9 12,0 4 2 5 3 S 1024,8 10 0 0,0
16.11.2017 16:00:00 9,5 6,8 10,1 9,9 12,0 0 0 7 4 N 1024,5 24 0 0,0
16.11.2017 15:00:00 9,6 6,5 11,0 9,9 12,0 3 2 9 5 WSW 1024,5 28 0 0,0
16.11.2017 14:00:00 9,4 7,2 10,4 9,9 12,0 4 2 8 4 W 1024,6 17 0 0,0
16.11.2017 13:00:00 8,7 7,0 10,2 9,8 12,0 4 2 10 6 - 1024,8 10 0 0,0
16.11.2017 12:00:00 8,3 6,9 9,1 9,8 12,1 8 4 16 8 S 1025,2 10 0 0,0
16.11.2017 11:00:00 7,7 6,8 7,5 9,8 12,0 9 5 11 6 S 1025,6 10 0 0,0
16.11.2017 10:00:00 7,0 6,6 5,5 9,9 12,0 5 3 7 4 SSW 1025,4 8 0 0,0
16.11.2017 09:00:00 5,9 5,5 4,5 9,9 12,1 4 2 8 5 SSW 1024,9 4,5 0 0,0
16.11.2017 08:00:00 6,1 5,7 4,9 9,9 12,0 5 3 15 8 SSW 1024,4 5 0 0,0
16.11.2017 07:00:00 6,3 6,0 4,4 9,9 12,1 6 3 10 6 SSE 1024,0 3,8 0 0,0
16.11.2017 06:00:00 6,2 5,9 4,5 10,0 12,1 8 4 12 6 S 1024,0 4,8 0 0,0
16.11.2017 05:00:00 6,7 6,3 5,9 10,0 12,1 8 4 16 8 S 1024,2 5 0 0,0
16.11.2017 04:00:00 7,4 7,1 6,7 10,0 12,1 9 5 13 7 S 1024,5 4,6 0 0,0
16.11.2017 03:00:00 7,3 6,9 6,0 10,0 12,1 8 4 9 5 SSE 1024,7 6 0 0,0
16.11.2017 02:00:00 7,4 7,0 5,7 10,0 12,1 8 4 10 5 SSE 1024,6 6 0 0,0
16.11.2017 01:00:00 7,4 6,7 6,3 10,1 12,1 8 4 12 6 SE 1024,8 7 0 0,0
16.11.2017 00:00:00 7,7 7,1 5,8 10,1 12,1 8 4 12 6 S 1025,0 10 0 0,0
15.11.2017 23:00:00 7,5 6,9 6,4 10,1 12,2 7 4 11 6 SSE 1025,1 9 0 0,0
15.11.2017 22:00:00 7,9 7,3 4,7 10,1 12,1 5 3 8 4 SSE 1025,6 9 0 0,0
15.11.2017 21:00:00 7,5 6,4 3,9 10,1 12,2 5 3 10 5 S 1025,5 9 0 0,0
15.11.2017 20:00:00 8,9 7,7 7,4 10,0 12,2 8 4 10 6 S 1025,3 10 0 0,0
15.11.2017 19:00:00 9,1 7,7 7,8 10,0 12,2 4 2 6 3 SE 1025,4 10 0 0,0
15.11.2017 18:00:00 9,9 7,8 9,2 10,0 12,2 4 2 10 5 - 1025,5 10 0 0,0
15.11.2017 17:00:00 10,5 7,9 10,4 9,9 12,2 8 4 11 6 S 1025,3 10 0 0,0
15.11.2017 16:00:00 11,4 8,1 11,6 9,8 12,2 5 3 12 7 WSW 1025,8 10 0 0,0
15.11.2017 15:00:00 11,6 7,9 12,5 9,7 12,2 8 4 11 6 S 1025,4 10 5 0,0
15.11.2017 14:00:00 12,2 7,7 13,8 9,6 12,2 8 4 11 6 S 1025,4 10 40 0,0
15.11.2017 13:00:00 13,1 8,2 13,9 9,5 12,2 5 3 12 6 - 1025,9 10 36 0,0
15.11.2017 12:00:00 11,6 7,7 14,2 9,5 12,2 8 4 15 8 W 1026,6 10 53 0,0
15.11.2017 11:00:00 10,9 7,2 12,6 9,5 12,2 8 4 10 6 SW 1026,6 10 60 0,0
15.11.2017 10:00:00 9,0 7,6 8,4 9,5 12,2 5 3 8 4 SSW 1026,8 10 9 0,0
15.11.2017 09:00:00 7,5 6,8 6,8 9,5 12,2 4 2 6 3 WSW 1026,9 10 0 0,0
15.11.2017 08:00:00 7,1 6,4 6,6 9,4 12,2 0 0 9 5 N 1026,8 10 0 0,0
15.11.2017 07:00:00 7,0 6,3 6,3 9,5 12,2 5 3 9 5 SSW 1026,2 10 0 0,0
15.11.2017 06:00:00 7,0 6,1 6,2 9,5 12,3 8 5 10 6 SSW 1026,1 15 0 0,0
15.11.2017 05:00:00 7,2 6,3 5,5 9,5 12,2 9 5 10 6 SSW 1026,3 10 0 0,0
15.11.2017 04:00:00 7,2 6,0 6,2 9,5 12,3 9 5 10 6 SSW 1026,6 10 0 0,0
15.11.2017 03:00:00 7,5 6,4 7,3 9,4 12,3 8 4 9 5 SSW 1027,0 10 0 0,0
15.11.2017 02:00:00 7,5 6,3 7,2 9,4 12,3 5 3 10 5 SSW 1026,9 10 0 0,0
15.11.2017 01:00:00 7,4 6,3 7,1 9,4 12,3 6 4 9 5 SSW 1027,0 16 0 0,0
15.11.2017 00:00:00 7,5 6,4 6,5 9,4 12,3 8 4 11 6 SSW 1027,0 10 0 0,0
14.11.2017 23:00:00 7,4 6,2 6,1 9,4 12,3 9 5 11 6 SSW 1027,0 20 0 0,0
14.11.2017 22:00:00 7,4 6,0 6,0 9,4 12,3 8 5 11 6 SW 1026,9 20 0 0,0
14.11.2017 21:00:00 8,2 6,3 7,9 9,4 12,3 8 4 14 7 SW 1027,1 10 0 0,0
14.11.2017 20:00:00 8,3 6,3 8,0 9,3 12,3 12 7 16 9 SW 1027,1 40 0 0,0
14.11.2017 19:00:00 8,5 6,3 8,2 9,3 12,3 11 6 15 8 SW 1027,1 10 0 0,0
14.11.2017 18:00:00 8,7 6,1 8,4 9,2 12,3 11 6 13 7 SW 1026,7 10 0 0,0
14.11.2017 17:00:00 9,1 6,2 8,8 9,2 12,3 8 4 13 7 WSW 1026,5 10 0 0,0
14.11.2017 16:00:00 9,5 6,0 9,7 9,1 12,3 8 4 16 9 SW 1026,5 10 0 0,0
14.11.2017 15:00:00 10,1 6,2 10,4 9,1 12,3 11 6 20 11 SSW 1026,4 10 0 0,0
14.11.2017 14:00:00 8,7 5,6 9,9 9,0 12,3 13 7 16 9 SW 1026,9 10 0 0,0
14.11.2017 13:00:00 8,4 5,5 8,5 9,0 12,3 13 7 18 10 SSW 1027,2 10 0 0,0
14.11.2017 12:00:00 6,4 4,7 6,9 9,0 12,3 9 5 11 6 SSW 1027,6 50 0 0,0

tt = Température de l'air
td = dewpoint
tt 5cm = Température de l'air 5cm
tt -20cm = Température de l'air -20cm
tt -100cm = Température de l'air -100cm
ff = Vitesse du vent
fx = gusts
dd = Direction du vent
ppp = reduced air pressure
vv = visibility
sd = Ensoleillement
rr = Quantités de précipitations

stations d'obs. à proximité